Voltar ao catálogo

SSS-1

AtivoCiênciaPO
NORAD 49321·PAYLOAD·🇨🇳 China
Este nome de satélite ainda não foi confirmado por fontes oficiais.

Lançado Oct 14, 2021 de Taiyuan Satellite Launch Center

Loading…

Próximas Passagens (próximas 24 horas)

TLE

AtualizadoSource: Space-Track

Época: Sep 14, 2026, 15:33 UTC

1 49321U 21091G   26257.64796580  .00141804  97396-5  39300-3 0  9994
2 49321  97.3414 128.4034 0001964 142.8434 217.2978 15.93853960275781

Acompanhe SSS-1 em tempo real com AllMySat

Download on the App Store